Theta_e
311 315 317 318 318 317 315 313 314 314 315 316 315 317 317 317 317 314 314 313 310 313 318 317 316 317 318 317 311 308 311 309 306 307 305 304 304 304 304 304 304 304 304 304 305 306 307 307 308 309 309 310 310 310 310 311 310 310 310 310 310 310 311 312 314 315 316 318 320 321 322 322 322 322 322 322 322 322 322 322 323 323 323 323 323 322
311 316 318 320 318 316 314 312 312 312 312 313 313 315 316 315 315 313 314 314 310 313 319 318 316 318 318 315 309 306 309 307 305 305 304 303 303 302 303 302 303 303 303 304 304 305 306 307 308 308 309 309 309 308 308 308 308 308 308 308 308 308 309 309 310 311 312 313 315 316 317 318 319 320 320 320 320 320 320 321 321 321 321 321 320 320
314 316 317 317 314 312 313 312 311 312 312 312 313 313 315 316 316 317 317 316 313 314 320 320 316 319 317 312 307 305 306 305 304 305 303 303 302 302 302 301 302 302 303 303 304 304 306 306 307 307 307 307 307 307 307 308 308 308 308 308 308 308 308 308 308 309 309 309 310 310 311 312 313 314 315 316 316 317 317 317 318 318 318 318 318 318
317 319 316 312 310 311 314 313 312 312 312 314 315 314 316 316 316 321 321 318 316 313 318 319 315 318 316 310 307 305 304 304 303 303 302 302 302 301 301 301 301 302 302 302 303 304 305 305 306 306 307 307 307 308 308 308 308 308 308 308 308 308 308 308 308 308 308 308 308 308 309 308 309 309 309 310 310 311 311 312 312 313 314 314 315 315
319 318 312 310 312 313 314 314 314 314 315 317 318 315 316 316 316 319 319 318 318 316 316 315 317 324 321 314 310 306 304 304 303 302 302 301 300 300 301 301 301 301 301 302 303 304 305 305 306 306 307 307 307 307 307 307 307 307 307 307 307 307 307 308 308 308 308 308 308 308 308 308 308 308 308 308 308 307 307 307 307 308 308 309 309 310
316 313 311 314 315 314 314 315 316 316 316 320 321 317 316 317 317 317 317 317 320 322 318 314 321 332 329 320 313 308 306 304 302 301 301 301 300 300 301 300 301 301 302 303 303 304 305 305 305 306 306 306 306 306 306 306 306 306 306 306 306 306 306 307 307 307 307 307 307 307 307 308 307 308 308 308 307 307 306 306 306 306 306 305 306 306
316 313 312 316 316 315 315 315 316 317 317 319 321 319 316 315 315 317 317 317 322 324 316 311 318 327 330 325 315 309 308 305 303 302 300 300 300 299 300 300 300 301 302 303 304 304 304 305 305 305 305 305 305 305 305 305 305 305 305 306 306 306 306 306 306 306 306 306 307 307 307 307 307 307 307 307 306 306 306 305 305 305 305 304 305 304
317 315 314 315 316 317 317 316 317 317 319 323 320 319 320 318 317 319 318 319 321 320 318 317 316 317 323 322 314 310 311 307 304 303 300 300 299 299 299 299 300 301 302 303 304 304 304 304 304 304 304 304 304 304 304 304 305 305 305 305 305 305 305 305 305 305 306 306 306 306 306 306 306 306 306 306 305 305 305 304 304 304 304 304 304 304
314 315 317 317 316 317 317 318 319 317 320 323 317 316 321 319 320 322 320 320 317 314 321 323 315 315 322 320 311 309 312 311 306 303 301 300 299 298 298 299 300 301 302 303 303 303 303 303 303 303 303 303 303 304 303 304 304 304 304 304 304 304 304 304 305 305 305 305 305 305 305 305 305 305 304 304 304 304 304 304 304 303 303 303 303 303
313 312 314 317 319 319 319 319 318 318 318 315 312 316 319 318 320 322 321 322 317 314 321 322 316 317 322 323 315 310 313 315 308 303 301 300 299 298 298 299 300 301 302 303 303 303 302 303 303 302 303 303 303 303 303 303 303 303 303 303 303 304 304 304 304 304 304 304 304 304 304 304 303 303 302 302 302 302 302 302 301 301 301 301 301 301
312 309 309 314 317 316 318 314 310 313 313 309 313 320 321 320 320 321 321 319 317 319 322 320 317 316 320 324 320 313 312 312 307 304 302 300 298 298 298 299 300 301 302 302 302 302 302 302 302 302 302 302 302 302 302 302 302 302 302 302 303 303 303 303 303 303 303 303 303 303 303 303 302 302 301 302 301 300 300 299 299 299 299 298 298 299
313 312 312 312 311 311 315 314 309 309 308 311 319 323 321 322 320 319 321 319 318 324 322 316 314 313 318 323 317 311 308 306 306 305 302 300 298 298 298 299 300 301 301 301 302 302 301 301 301 301 301 301 301 301 301 301 301 302 301 301 302 302 302 302 302 302 303 303 303 302 302 302 301 300 300 300 299 299 298 298 297 297 297 297 297 297
318 317 313 311 310 311 318 320 313 312 312 315 321 321 321 322 320 321 322 319 320 321 315 313 313 313 318 319 311 309 306 303 304 303 300 299 298 298 299 299 300 300 301 301 301 301 301 301 301 301 301 301 301 301 301 301 301 301 301 301 301 301 301 301 301 301 301 301 301 300 300 299 298 298 298 297 297 297 296 296 296 295 295 295 295 295
322 321 313 312 312 311 316 319 317 319 316 315 319 321 322 322 322 324 321 316 318 318 312 312 313 315 319 315 306 305 303 300 301 301 300 300 299 299 299 300 300 300 301 301 300 301 301 301 301 300 300 300 300 300 300 300 300 300 300 300 300 300 300 300 299 299 299 299 298 297 297 296 296 296 295 295 295 294 294 294 294 294 293 293 292 292
324 324 318 316 314 312 314 315 320 325 318 314 317 318 320 323 324 324 322 319 319 320 314 310 313 320 321 312 302 301 300 299 301 300 300 300 299 300 299 299 300 300 300 300 300 300 300 300 300 300 300 300 300 300 299 300 299 299 299 299 299 298 298 297 296 296 296 296 295 295 294 294 294 293 293 293 293 293 293 293 293 292 292 292 292 291
319 323 320 313 309 311 312 311 314 322 319 313 313 315 317 321 320 318 319 318 317 319 316 313 317 318 313 305 300 300 299 298 299 299 299 299 299 299 299 299 300 300 300 300 300 300 300 300 300 300 300 299 299 299 299 299 299 298 298 297 297 296 295 295 295 295 295 294 293 293 293 293 292 292 292 292 292 292 292 292 292 292 292 291 291 291
317 322 319 311 308 309 310 310 309 314 319 314 312 318 317 315 317 319 318 313 313 318 317 316 318 313 308 306 302 301 301 299 299 298 298 298 298 298 299 299 299 299 299 299 299 300 300 300 299 300 300 299 299 299 298 298 297 297 296 296 295 295 294 294 294 294 294 293 293 293 293 293 292 292 292 292 291 291 291 291 291 291 291 291 291 291
318 322 318 312 313 310 305 308 308 307 314 318 317 318 314 312 317 320 319 317 316 318 317 316 318 315 315 313 304 300 302 301 300 299 297 298 298 298 299 299 299 299 299 299 299 299 299 299 299 300 299 299 298 298 297 297 296 295 295 294 294 294 294 294 294 294 294 293 293 293 292 292 292 292 292 291 291 291 291 291 290 290 290 290 290 290
315 320 319 311 313 313 307 310 312 307 309 314 315 313 312 316 320 318 318 320 319 318 319 319 317 315 316 315 308 305 304 302 301 300 299 298 298 298 299 299 298 299 299 299 299 299 299 299 300 299 299 298 297 297 296 295 294 293 293 293 293 293 294 293 293 293 293 293 292 292 292 292 291 291 291 291 290 290 290 290 290 290 290 290 290 289
314 317 320 312 310 312 312 314 318 315 309 308 310 310 312 317 320 318 316 318 320 318 319 319 316 316 318 317 315 311 303 300 301 301 300 299 298 300 300 299 299 300 300 300 300 300 299 300 300 299 298 297 296 295 294 293 293 292 292 292 292 292 292 292 292 292 292 291 291 291 291 291 290 290 290 290 290 290 290 290 290 290 290 290 289 289
315 314 318 317 312 312 315 316 318 319 315 312 313 314 314 314 315 317 315 316 319 319 318 317 316 320 320 313 313 310 303 300 301 300 300 299 300 301 301 300 301 301 300 300 300 299 299 299 299 298 296 295 294 293 292 291 291 291 291 291 291 291 291 291 291 291 291 291 290 290 290 290 290 290 290 290 290 290 290 290 290 290 290 289 289 289
316 316 320 321 316 316 320 315 311 314 317 317 317 317 316 315 315 316 315 315 316 317 319 318 316 319 316 308 309 308 302 300 300 300 300 300 301 302 301 302 301 301 301 300 300 299 298 298 298 296 295 294 292 292 291 291 291 290 290 290 290 291 291 291 291 291 291 291 291 290 290 290 290 290 290 290 290 290 289 289 289 289 289 289 289 289
313 316 321 321 319 318 317 309 304 308 314 315 315 315 315 316 316 317 316 316 316 315 317 317 316 316 311 305 306 304 301 300 300 300 300 301 303 303 302 302 302 301 301 300 300 299 297 297 296 295 294 292 292 291 291 291 290 290 290 290 291 291 291 291 291 291 291 290 290 290 290 290 290 290 290 290 289 289 289 289 289 289 289 289 289 289
312 316 319 319 319 316 313 310 306 308 311 312 313 313 313 315 315 314 314 316 316 316 315 315 316 315 309 303 301 300 300 300 300 301 302 302 303 304 303 303 302 301 301 300 299 298 297 296 295 294 293 291 291 291 290 290 290 290 290 291 291 291 291 291 290 290 290 290 290 290 290 290 290 290 290 289 289 289 289 289 289 289 289 288 288 288
314 318 318 318 319 315 314 314 313 312 313 313 314 314 312 313 313 311 311 312 313 314 315 314 314 315 311 304 301 300 300 300 300 301 303 303 304 303 303 303 302 302 301 300 299 297 297 296 294 292 291 290 291 291 291 291 291 291 291 291 291 291 290 290 290 290 290 290 290 290 290 290 290 290 290 289 289 289 289 289 288 288 288 288 288 288
314 317 317 316 316 315 315 315 314 315 314 312 312 312 310 311 311 311 312 312 312 313 314 314 314 313 309 306 305 304 302 302 302 301 302 303 303 303 302 302 302 302 301 299 298 297 296 294 292 291 291 291 291 291 292 292 292 292 291 291 290 290 290 290 290 290 290 290 290 290 290 290 290 290 290 289 289 289 289 289 288 288 288 288 288 288
315 315 315 316 315 314 314 314 312 313 314 313 312 312 311 309 308 310 312 312 312 312 312 312 311 311 310 309 308 306 304 305 303 300 302 303 302 302 301 301 302 301 300 299 297 297 296 293 291 291 292 292 292 292 292 292 292 292 292 291 291 291 290 290 290 290 290 290 290 290 290 290 290 290 289 289 289 289 288 288 288 288 288 288 288 288
314 313 312 315 315 312 312 312 310 310 312 314 313 312 310 309 307 308 309 310 310 311 311 310 309 310 310 309 309 308 307 306 302 300 302 303 302 301 301 300 300 300 299 298 296 296 295 293 292 293 293 293 293 293 292 292 292 292 292 292 292 291 291 291 290 290 290 290 290 290 290 290 290 289 289 288 288 288 288 288 287 287 287 287 287 287
314 314 311 312 313 311 309 310 309 308 309 311 311 311 310 308 308 307 307 307 308 309 309 308 307 308 308 307 308 307 305 305 303 302 302 302 300 300 299 299 300 299 298 297 295 296 295 293 292 294 294 293 293 293 292 292 291 291 291 291 292 292 291 291 291 291 291 290 290 290 289 289 288 288 288 288 288 287 287 287 287 287 287 287 287 287
311 313 308 308 310 309 305 305 305 305 306 307 308 308 308 307 306 305 306 306 306 306 306 306 305 305 305 304 304 303 302 302 302 301 301 300 299 299 299 299 299 298 297 296 295 295 295 294 293 294 294 294 293 293 292 291 290 290 290 290 291 291 291 291 291 291 290 290 289 289 288 288 288 288 287 287 287 287 287 286 286 286 286 286 286 286
307 310 306 306 309 308 303 302 302 302 303 304 305 304 303 303 303 303 304 304 303 303 303 303 302 302 302 301 300 300 299 299 299 299 299 299 298 298 299 299 298 297 296 295 295 295 294 294 294 294 294 293 293 292 291 290 290 290 290 290 290 290 290 290 290 290 289 289 288 288 287 287 287 287 287 287 286 286 286 286 286 286 286 285 285 285
306 306 304 305 309 307 302 301 302 301 300 302 302 301 300 300 302 302 301 302 302 302 302 301 301 301 300 298 298 298 296 295 295 297 297 298 298 298 298 298 297 297 295 294 294 293 293 293 293 293 292 292 291 291 291 290 290 290 290 290 290 290 290 289 289 289 288 288 288 287 287 287 287 286 286 286 286 286 286 285 285 285 285 284 284 284
305 306 305 305 308 305 300 300 302 302 302 303 302 301 300 300 300 299 299 300 300 300 300 300 300 299 298 297 298 298 295 292 293 296 297 297 297 297 298 297 297 295 294 293 292 292 292 292 292 292 291 291 291 291 290 290 289 289 290 289 289 289 289 289 288 288 288 287 287 287 286 286 286 286 286 286 285 285 285 284 284 284 284 284 284 283
303 306 306 305 306 304 298 298 301 302 304 302 300 301 302 300 299 299 298 298 298 298 299 299 299 299 298 298 299 299 296 294 294 295 296 296 297 297 297 296 294 293 292 292 292 292 292 291 291 291 291 291 290 290 290 289 289 289 289 289 289 289 289 288 288 287 287 287 287 286 286 286 286 286 286 285 285 284 284 283 283 283 283 283 283 283
303 304 304 303 304 302 297 299 303 303 303 301 300 300 300 299 299 298 297 298 297 297 298 298 298 299 297 296 297 296 295 295 295 295 295 295 295 295 295 294 293 292 292 292 292 292 292 291 291 291 290 290 289 289 289 289 289 289 289 289 289 289 288 288 287 287 287 286 286 286 286 286 286 285 285 284 284 283 283 283 283 283 283 282 282 282
303 303 303 303 302 300 298 301 303 302 301 300 299 297 294 295 296 296 297 297 297 297 297 297 298 297 295 294 294 294 294 294 293 293 293 293 294 293 293 293 292 293 293 292 292 292 292 291 291 290 290 289 289 289 289 289 289 289 289 289 288 288 288 287 287 287 286 286 286 286 286 285 285 284 284 283 283 283 282 282 282 282 282 282 282 282
302 303 303 303 303 302 301 301 302 302 301 300 299 297 294 294 296 297 297 297 296 295 295 297 298 296 293 293 294 293 293 292 291 291 292 293 293 293 293 292 292 292 292 292 292 292 291 291 290 290 289 289 289 288 288 288 288 288 288 288 288 287 287 287 286 286 286 286 286 285 285 284 284 283 283 282 282 282 282 282 282 281 281 281 281 281
299 301 302 303 303 303 302 301 301 301 300 299 298 297 295 294 296 296 296 297 296 293 292 295 297 294 291 292 292 291 291 292 293 293 293 293 294 293 292 292 292 292 292 292 291 291 291 290 290 289 289 289 288 288 288 288 288 288 288 288 287 287 287 286 286 286 286 286 285 285 284 283 282 282 282 282 282 281 281 281 281 280 280 280 280 280
297 298 300 302 302 302 301 302 301 300 300 299 298 296 292 293 295 294 295 298 296 291 291 293 293 292 292 292 290 290 292 294 295 294 293 294 294 293 292 292 291 291 291 291 291 291 290 290 289 289 289 288 288 288 288 288 288 288 287 287 287 286 286 286 286 285 285 285 284 284 283 282 281 281 281 281 281 281 281 280 280 280 279 279 279 279
296 297 299 299 301 301 300 300 299 299 299 298 297 294 291 292 294 294 296 299 295 290 291 293 292 293 294 293 290 291 294 295 295 294 292 293 293 293 292 292 291 291 291 291 290 290 290 290 289 289 289 288 288 288 288 288 287 287 287 287 286 286 286 285 285 285 285 284 283 283 282 281 281 280 280 280 280 280 280 280 280 279 279 279 279 279
295 296 298 298 299 299 299 299 297 298 298 296 294 293 291 292 295 295 297 299 294 291 293 294 293 294 294 292 291 292 294 294 293 293 292 292 292 292 292 291 291 291 291 290 290 290 290 290 289 289 288 288 288 288 287 287 287 287 287 286 286 285 285 285 285 285 284 283 282 282 281 280 280 280 280 279 279 280 280 279 279 279 279 279 278 278
294 295 296 298 298 297 298 298 297 297 298 294 292 292 292 293 296 296 296 296 294 293 294 294 293 294 294 293 292 293 293 292 292 292 292 292 292 292 291 291 291 291 291 290 290 290 290 289 289 289 288 288 288 288 287 287 287 286 286 285 285 285 285 285 285 284 283 282 281 281 280 280 279 279 279 279 279 279 279 279 278 278 278 278 278 277
294 294 294 295 297 297 297 297 296 297 296 293 292 293 293 295 297 296 294 294 293 293 294 294 293 293 293 293 293 292 292 292 292 292 292 292 292 292 291 291 291 291 291 290 290 290 289 289 289 288 288 288 288 288 287 287 286 286 285 285 285 285 285 285 284 283 282 281 280 280 279 279 279 279 278 278 278 278 278 278 278 277 277 277 276 275
295 295 295 295 296 296 296 297 297 296 294 293 294 295 294 295 296 295 294 294 293 293 293 293 293 293 293 293 293 292 292 292 292 292 292 292 292 292 291 291 291 291 290 290 290 289 289 288 288 288 288 288 288 288 287 287 286 285 285 285 285 285 284 284 283 282 281 280 280 279 279 279 278 278 278 278 277 278 278 277 277 277 276 275 274 274
295 295 295 296 296 294 294 296 296 294 293 293 295 296 295 295 295 295 295 294 294 294 293 293 293 293 292 292 292 292 292 292 292 292 292 292 292 292 291 291 291 290 290 290 289 289 288 288 288 288 288 288 287 287 287 286 285 285 285 284 284 284 283 282 281 281 280 280 279 279 278 278 278 277 277 277 277 277 277 277 276 276 275 274 273 272
292 291 291 294 295 293 292 292 292 292 293 293 294 295 294 294 295 295 294 294 294 294 293 293 293 293 292 292 292 292 292 292 292 292 292 292 291 291 291 291 290 290 290 289 289 289 288 288 288 288 288 287 287 287 286 285 285 284 284 284 284 283 282 281 280 280 279 279 278 278 278 278 277 277 277 277 277 277 276 276 275 275 274 273 272 271
291 289 290 293 294 294 293 292 291 291 293 293 293 294 294 293 294 294 294 294 294 294 294 294 293 293 292 292 291 291 292 292 292 292 291 291 291 291 290 290 290 290 290 289 289 288 288 287 287 287 287 287 286 286 285 284 284 284 283 283 283 282 281 280 279 279 279 278 278 277 277 277 277 277 277 277 277 276 276 275 274 274 273 272 271 271
292 291 292 293 292 292 293 292 290 290 292 292 292 293 293 293 294 294 293 293 293 293 294 293 293 292 292 292 292 291 291 291 291 291 291 291 291 290 290 290 290 290 289 289 288 288 287 287 287 286 286 286 285 284 284 283 283 283 282 282 281 280 280 279 279 278 278 277 277 277 276 276 276 276 277 277 276 276 275 274 274 273 272 272 271 270
292 292 293 293 292 292 292 291 290 290 291 291 292 293 293 293 293 293 293 293 293 293 293 292 292 292 292 292 291 291 291 291 291 291 291 291 290 290 290 290 290 289 289 288 288 287 287 286 286 286 285 284 284 283 283 282 282 282 281 280 280 279 279 278 278 278 277 277 276 276 276 276 276 276 276 276 276 275 274 274 273 273 271 271 271 270
291 292 292 292 292 292 291 291 291 291 291 292 292 292 293 293 293 293 293 293 293 293 293 292 292 292 292 292 291 291 291 291 291 291 291 291 290 290 290 290 289 289 289 288 287 287 286 286 286 285 284 284 283 282 282 281 281 280 280 279 279 278 278 278 278 277 276 276 276 275 275 276 276 276 276 275 275 275 274 274 273 272 271 271 271 271
292 292 292 292 292 292 292 292 291 291 292 292 292 293 293 292 292 292 292 292 292 293 292 292 292 292 292 292 291 291 291 291 291 291 291 291 290 290 290 289 289 288 288 287 287 286 286 286 285 285 284 284 283 282 281 280 279 279 278 278 278 277 277 277 277 276 276 275 275 275 275 275 275 275 275 275 274 274 274 274 274 273 272 271 271 271
Wind_Speed
5 3 2 4 6 8 10 12 12 8 4 4 3 3 4 5 6 6 6 6 1 1 6 6 5 7 9 9 9 14 12 12 11 13 14 14 14 14 14 14 13 13 13 10 8 8 7 8 9 9 9 8 8 8 7 6 6 6 5 4 5 5 4 2 1 1 2 3 3 3 3 3 3 4 4 5 6 6 7 8 8 8 9 11 11 11
4 5 6 9 11 10 8 9 9 5 3 2 2 3 4 4 7 7 6 6 1 3 5 3 3 8 9 4 8 11 10 11 10 12 13 14 15 15 15 16 16 15 14 11 11 11 10 10 10 10 11 12 14 16 17 17 17 17 15 14 14 12 10 9 9 7 5 4 2 1 2 3 4 4 5 6 6 7 8 9 9 10 11 12 13 14
2 4 9 15 12 5 2 4 6 5 5 4 2 2 4 4 4 7 6 5 1 3 4 2 2 9 6 3 7 10 10 10 11 13 12 13 15 16 16 17 18 19 18 18 19 18 18 17 17 18 21 23 25 26 27 28 28 28 27 26 24 22 21 20 19 17 16 14 11 8 6 3 1 1 2 4 5 6 7 8 9 10 11 12 13 14
3 5 13 16 7 3 4 3 6 3 3 3 3 3 5 3 1 4 5 5 3 0 2 2 3 7 4 4 7 9 11 13 16 16 15 15 16 16 16 17 19 21 22 23 25 26 26 27 28 30 30 31 31 31 31 31 30 30 30 28 26 25 24 24 23 21 21 19 17 16 14 12 9 7 5 3 1 2 3 5 6 8 9 11 13 13
7 8 7 5 4 6 6 4 6 4 2 3 6 6 5 5 6 7 4 5 4 2 2 1 3 5 3 2 3 6 10 12 14 16 17 16 16 16 17 18 20 21 22 25 27 29 31 32 32 32 31 31 31 31 30 29 28 28 27 26 25 24 23 23 22 21 20 19 18 17 16 15 13 11 10 7 6 5 4 3 2 3 5 8 9 11
9 9 4 3 3 5 5 5 5 6 3 4 6 10 11 9 9 6 3 5 4 3 3 4 3 5 4 1 3 4 5 7 9 13 14 13 14 16 18 19 20 21 23 26 28 29 30 30 30 30 29 29 29 29 28 26 25 25 25 24 23 23 23 22 21 20 19 19 18 17 16 15 14 13 12 11 10 8 6 5 4 3 3 4 5 7
5 6 4 5 4 5 5 5 5 7 4 3 5 9 11 8 6 5 2 2 0 3 3 3 1 5 5 3 4 5 5 4 6 8 9 11 13 15 16 17 19 22 24 25 27 27 28 28 27 28 27 27 27 26 24 23 23 23 22 22 22 22 21 20 20 19 18 18 18 17 16 15 14 14 13 12 11 9 8 7 6 5 4 4 3 4
3 0 1 4 4 5 4 4 5 7 6 3 4 4 6 6 6 6 5 4 3 3 3 3 1 3 5 4 3 6 6 5 4 5 6 8 10 12 15 16 19 21 23 25 25 25 26 26 25 25 25 24 24 23 21 21 21 20 20 20 19 19 19 18 17 16 17 17 17 16 15 14 15 15 14 13 11 11 10 9 8 8 8 8 8 8
2 1 2 6 5 4 5 4 7 9 4 6 3 6 6 6 5 5 5 2 1 1 4 4 0 2 5 4 1 4 4 2 3 2 3 5 8 11 13 16 19 21 22 23 23 23 24 23 23 23 22 21 20 19 19 19 18 18 17 17 16 17 17 16 14 14 16 16 16 15 14 15 16 16 15 14 13 12 12 11 10 10 11 11 11 11
1 2 4 7 5 5 5 1 6 9 4 4 5 7 5 5 5 4 5 3 2 1 4 6 4 2 5 4 2 2 3 3 3 3 2 5 8 11 13 15 18 20 21 21 21 21 21 21 21 20 19 18 18 17 16 16 16 15 15 14 14 15 15 14 13 13 15 16 14 14 15 15 16 16 14 13 12 13 12 11 11 11 11 11 11 11
3 1 1 4 4 5 5 3 3 6 4 5 6 5 6 5 4 3 2 3 2 3 6 8 8 5 4 5 2 3 2 4 6 4 4 6 8 11 14 15 17 19 19 19 19 19 19 18 18 17 16 16 15 15 14 14 14 13 14 13 13 14 13 12 12 12 14 14 14 14 14 14 14 13 11 10 11 12 12 13 13 13 12 12 12 12
5 2 2 3 4 6 7 4 2 3 5 6 4 4 3 4 4 4 4 3 1 5 5 4 4 5 4 4 2 3 3 3 8 8 8 9 11 13 15 16 17 17 17 17 17 17 16 16 15 15 14 14 13 12 12 13 12 12 13 12 11 11 11 11 11 11 13 13 13 13 12 12 12 11 11 11 12 13 14 14 15 14 13 13 13 12
3 5 3 1 3 5 6 4 2 4 5 5 4 5 3 3 3 3 3 0 3 6 3 2 1 2 6 4 2 3 5 4 6 11 15 17 18 17 16 16 16 16 16 16 15 15 14 14 13 13 13 12 11 11 11 11 11 11 11 10 10 10 11 10 10 11 12 12 12 12 12 12 13 13 13 14 15 16 17 17 17 17 17 17 16 16
3 5 2 1 2 5 7 5 2 1 1 4 5 5 3 2 1 3 3 2 4 5 3 2 1 2 5 2 1 4 6 6 5 15 21 23 23 21 19 17 16 16 15 14 14 13 13 13 12 12 11 11 10 10 10 9 9 9 9 9 9 9 9 9 9 10 11 12 12 13 13 13 13 14 14 15 16 17 18 18 20 21 21 21 21 21
1 5 2 4 1 3 6 5 5 5 3 4 4 5 4 4 4 4 4 3 4 4 3 2 1 2 3 1 3 4 3 3 9 18 21 22 22 20 19 17 16 16 15 14 13 12 12 11 11 10 9 9 8 8 7 7 7 7 7 8 8 8 8 8 9 11 12 12 13 12 12 13 13 13 13 13 14 14 15 16 17 18 19 20 21 22
2 5 5 3 1 3 4 3 5 6 3 2 3 4 2 4 4 2 3 5 2 3 2 2 2 3 3 1 4 2 5 7 11 17 19 20 20 19 18 17 17 16 14 13 12 11 10 10 9 8 7 6 6 6 5 5 5 5 6 7 7 8 8 8 9 11 12 12 12 12 12 12 12 12 12 12 13 13 14 14 15 16 17 18 19 19
2 4 5 2 1 2 1 2 3 3 3 2 3 3 4 4 5 1 2 1 3 2 4 2 2 3 1 1 4 3 4 5 7 11 16 18 18 18 18 18 17 16 14 13 11 10 9 8 7 6 5 4 4 3 3 4 4 5 6 6 6 6 7 7 8 9 10 9 9 10 10 11 11 11 12 13 13 14 15 15 15 16 16 17 18 18
2 4 5 0 1 1 2 2 4 3 3 4 2 5 3 2 4 3 2 2 2 3 4 1 3 3 2 1 2 2 3 4 4 8 12 14 15 17 19 18 17 15 14 12 11 9 8 7 5 3 2 1 2 2 2 3 4 4 5 5 4 4 4 5 6 6 6 6 6 7 8 9 10 11 12 12 13 13 14 14 15 16 16 17 18 18
3 2 6 1 1 3 3 3 3 4 3 4 3 2 3 2 1 2 2 2 2 4 4 2 3 3 4 4 2 5 9 9 7 7 8 11 15 18 19 18 16 15 14 13 11 10 9 7 4 3 2 2 2 2 3 4 5 4 4 4 4 3 4 4 5 5 5 6 6 7 8 9 11 12 13 14 14 15 15 16 17 17 18 19 19 20
2 1 4 2 1 2 3 2 2 2 2 3 2 1 2 2 3 2 2 3 3 3 4 5 4 3 5 6 8 11 13 12 12 10 9 13 19 21 20 19 17 15 14 13 12 11 10 7 4 4 4 3 4 4 5 5 4 4 4 4 4 5 6 6 7 7 8 9 9 10 11 12 14 15 16 17 17 18 19 20 20 21 21 22 22 23
2 1 3 3 3 1 1 2 5 5 2 1 1 1 1 0 1 1 1 2 3 3 3 5 6 5 4 3 7 11 11 13 15 12 10 16 22 22 21 19 16 14 13 13 12 11 11 8 5 6 6 5 5 5 5 4 4 4 4 5 6 6 7 8 9 10 11 12 13 13 14 15 17 18 19 20 21 22 22 23 23 23 24 25 25 26
1 2 3 1 1 2 4 4 4 6 5 5 4 4 4 3 2 2 4 1 1 3 3 4 8 7 3 2 4 6 9 13 16 14 13 20 24 22 19 18 16 14 13 13 12 12 12 9 7 7 7 6 6 5 4 3 3 3 4 5 5 6 7 8 9 10 11 11 12 13 14 15 17 18 20 21 22 23 24 25 25 26 27 28 29 30
2 3 2 2 3 5 6 3 2 5 4 4 3 3 3 3 4 4 7 3 1 2 2 2 6 5 2 2 3 5 9 15 21 21 20 23 24 21 17 16 15 15 14 13 13 13 12 9 8 8 8 8 7 6 5 4 3 2 3 4 5 6 8 9 10 10 11 12 13 14 15 17 18 19 21 22 23 25 26 27 28 29 30 31 32 33
2 2 1 3 3 2 4 4 2 1 3 2 2 2 3 3 3 4 5 2 1 3 2 2 6 5 1 2 1 5 10 15 21 24 23 22 21 18 16 14 15 16 15 15 14 13 11 11 10 10 10 9 8 6 5 4 3 3 4 5 7 9 10 11 12 13 14 15 16 17 18 19 21 22 24 25 26 28 28 29 30 31 33 34 35 36
2 1 2 1 4 4 4 3 3 3 1 2 2 1 2 3 3 2 1 1 1 5 5 5 7 4 1 4 4 4 9 13 19 23 20 16 13 12 13 13 15 17 18 17 16 14 13 12 12 11 10 9 7 5 3 2 3 4 5 7 8 9 10 11 12 13 14 15 16 17 19 20 22 24 26 27 28 29 30 31 32 33 34 35 36 37
4 2 3 4 6 8 5 3 2 2 1 1 2 3 3 4 5 2 1 2 3 3 4 6 6 3 3 4 4 2 6 9 14 16 14 11 10 9 10 11 16 20 20 19 17 15 14 13 12 11 10 8 5 3 2 1 2 3 4 6 7 9 10 11 12 12 14 15 17 18 20 22 24 26 27 29 30 31 31 32 33 34 35 36 37 38
3 2 3 6 8 8 6 5 4 3 2 3 3 4 4 4 4 3 3 3 4 1 3 7 3 1 4 4 3 3 4 5 8 11 12 11 11 11 11 13 16 19 21 18 16 15 13 13 13 11 9 7 5 3 2 2 3 4 5 7 9 11 12 13 14 15 17 18 19 21 23 24 26 27 29 30 31 32 33 34 35 36 36 37 39 40
3 2 4 6 7 6 3 5 4 4 4 6 5 6 6 4 5 5 4 4 2 1 7 8 3 2 7 7 6 6 5 5 8 12 13 13 13 15 16 16 17 19 20 18 16 15 14 14 14 11 9 8 6 5 5 5 6 7 9 11 13 14 16 16 18 18 19 20 21 23 24 25 27 28 29 30 31 32 33 35 36 37 38 39 40 41
4 4 4 4 5 3 2 2 3 4 3 3 4 8 7 6 6 6 6 6 6 6 10 5 4 6 9 6 6 8 8 9 11 14 16 17 18 18 16 17 18 20 21 19 17 15 15 16 14 11 10 10 9 9 8 8 9 11 13 15 17 18 20 20 21 22 22 22 23 24 26 27 29 30 30 31 31 32 34 35 36 37 38 39 41 42
3 2 1 3 3 2 1 2 1 3 2 4 7 11 9 6 6 6 8 10 9 9 10 5 3 8 10 6 6 8 11 13 15 18 20 20 18 16 15 16 19 22 21 19 17 15 14 15 15 14 13 13 13 12 11 10 11 13 15 17 19 20 21 22 23 23 23 23 24 27 29 30 31 31 31 32 33 34 35 36 37 37 38 38 39 40
2 1 1 3 1 2 1 1 3 2 1 4 12 13 4 1 4 9 11 9 4 6 9 7 6 11 12 7 7 10 13 14 17 20 21 19 16 15 15 17 21 22 20 17 16 15 15 16 16 16 16 15 15 14 12 12 13 14 16 17 19 20 21 21 22 22 23 25 28 29 30 31 32 32 33 34 35 35 36 36 36 37 37 37 37 38
1 1 2 3 1 3 1 2 3 3 2 6 16 14 4 4 9 10 7 6 6 8 9 6 6 11 9 3 4 10 12 13 15 17 17 16 15 15 17 19 22 22 18 17 17 17 17 18 18 18 17 16 16 15 14 14 15 16 17 17 18 19 20 21 22 23 25 27 29 30 31 32 33 34 35 35 36 36 36 36 35 35 36 36 37 39
3 3 2 2 3 2 1 3 4 5 3 8 12 8 8 10 13 9 5 7 9 8 6 7 9 9 5 1 3 9 9 9 12 15 17 17 16 17 19 20 21 20 17 16 17 18 18 18 18 17 16 16 15 14 15 15 16 17 18 18 19 21 21 23 24 25 28 29 30 31 32 33 34 34 35 36 36 36 35 35 35 36 38 39 41 43
4 4 3 3 3 1 1 3 4 2 6 8 3 4 8 10 11 10 10 10 9 7 6 8 8 5 4 5 8 9 8 9 14 16 17 16 16 18 20 19 18 17 16 16 17 18 18 18 17 17 16 15 15 15 15 16 17 18 19 20 21 22 23 24 26 28 30 31 32 33 34 34 35 35 36 36 36 35 35 36 37 39 41 43 44 46
4 4 2 2 2 2 2 2 2 6 7 3 1 2 5 6 7 8 8 8 9 10 9 9 8 7 10 14 14 11 11 12 13 13 14 15 16 18 19 19 18 17 17 17 18 18 19 19 17 16 15 14 15 15 16 17 18 19 21 22 23 23 24 26 29 30 31 32 33 34 35 35 36 36 36 35 35 36 37 39 41 43 44 45 46 47
5 4 2 2 2 1 2 4 7 6 4 5 3 1 1 2 3 3 4 9 10 10 10 9 10 12 15 16 12 9 9 7 6 9 14 16 16 17 18 18 17 17 17 17 17 18 18 17 16 14 13 14 15 16 17 18 20 21 23 24 24 25 27 29 31 32 32 33 34 35 35 35 36 36 36 36 37 39 41 42 44 44 45 46 47 48
4 4 2 2 4 2 2 6 5 4 9 13 8 3 4 5 6 5 5 9 7 9 11 10 10 12 12 11 9 6 5 3 2 8 14 16 16 17 17 16 15 15 16 16 17 17 17 16 15 14 14 15 16 17 19 20 22 23 24 25 26 27 29 31 32 33 34 34 35 35 35 35 35 36 36 38 40 42 43 44 45 45 45 46 47 48
1 3 3 4 4 2 3 5 4 4 9 11 5 4 5 8 9 7 4 6 4 10 16 13 8 8 7 6 6 7 7 3 2 8 13 16 17 18 16 14 13 13 14 15 17 18 18 17 16 15 15 16 18 19 20 22 23 24 26 27 28 30 32 33 34 34 35 35 36 36 35 35 35 37 38 40 42 43 44 44 45 45 45 46 48 49
1 0 1 3 3 2 3 4 5 7 9 7 5 3 2 7 8 6 2 6 5 10 17 13 8 8 8 9 11 10 6 3 4 9 13 14 16 18 16 14 12 12 14 16 17 18 19 18 17 16 17 18 20 21 22 23 24 25 27 28 30 32 33 34 35 36 36 36 37 36 36 36 37 39 40 41 42 43 44 44 45 45 45 46 48 49
2 1 1 3 5 6 6 5 4 5 6 5 6 4 2 7 9 8 1 8 6 10 16 15 13 13 12 13 14 10 6 6 6 11 16 15 15 18 16 11 11 13 16 18 19 20 20 19 18 18 19 20 21 22 23 24 25 26 28 30 31 33 34 35 36 37 37 37 37 36 36 37 39 40 40 41 42 42 43 43 44 45 45 46 48 49
1 1 2 4 7 9 9 6 4 4 5 5 7 10 10 8 6 4 5 6 8 13 17 17 15 14 14 16 15 11 10 12 13 17 19 16 14 16 13 11 14 17 19 20 21 22 22 21 20 20 20 21 22 23 24 25 26 28 29 30 32 34 35 36 37 38 38 38 37 36 38 38 39 39 39 40 41 42 42 42 43 44 45 46 48 49
1 0 2 4 5 5 5 4 4 6 6 9 11 14 13 7 1 6 5 7 14 16 16 17 16 14 15 18 17 15 15 17 18 20 21 18 15 13 11 14 16 19 21 22 24 25 25 23 22 21 21 21 23 24 26 27 28 29 30 31 32 34 35 36 38 38 38 37 37 37 38 38 38 38 38 39 39 41 42 42 42 43 44 45 47 48
5 3 2 3 3 2 2 4 5 6 6 18 17 7 5 6 7 8 6 9 13 13 14 18 18 15 15 17 17 17 18 19 19 20 21 21 18 14 14 17 19 22 24 25 27 27 26 24 23 22 22 22 24 26 28 29 30 30 31 32 34 35 36 37 38 38 37 37 37 38 38 37 37 37 37 38 38 40 42 42 42 42 43 44 46 46
3 5 3 3 3 4 3 6 5 2 8 24 21 7 11 18 19 15 11 11 13 14 15 16 16 15 15 16 16 18 20 21 21 20 21 22 21 18 19 21 22 23 26 27 28 27 26 24 23 22 22 24 26 28 29 30 31 32 32 33 35 35 36 37 37 37 36 37 37 37 37 37 36 36 36 37 38 39 41 41 41 42 42 43 43 43
5 6 5 4 3 5 5 8 5 4 11 25 23 16 20 25 26 24 20 16 16 16 16 15 15 14 14 16 18 20 21 22 22 21 21 22 22 22 24 24 23 24 27 29 29 28 27 25 24 23 24 25 27 29 30 31 32 33 34 34 35 35 36 36 35 36 36 36 36 36 36 36 36 35 36 36 37 38 39 40 40 41 41 41 40 40
6 4 4 2 2 4 7 9 4 4 11 22 25 23 23 23 24 26 26 23 19 18 17 17 17 16 15 17 19 20 22 22 22 22 21 22 23 25 25 24 23 23 26 29 31 30 28 26 25 25 25 26 28 30 31 31 32 34 35 35 35 35 36 35 35 36 35 35 35 34 35 35 35 35 35 35 36 37 37 37 38 39 40 39 37 37
4 4 4 2 2 4 6 6 8 12 17 21 24 26 26 25 25 26 27 26 24 22 22 21 19 19 20 20 20 21 22 22 21 22 22 23 24 24 24 24 23 22 25 29 31 30 28 27 26 25 25 27 29 30 31 31 32 33 34 34 34 34 34 34 35 35 34 34 34 33 33 34 34 34 35 35 35 36 35 34 35 37 38 36 35 35
3 4 5 4 5 7 6 5 10 15 17 17 21 26 27 27 28 28 27 26 24 23 24 23 21 22 23 23 23 23 22 22 22 22 22 23 23 22 23 25 24 22 24 28 30 30 28 26 25 25 26 28 29 29 29 30 31 32 33 33 33 33 33 34 34 34 33 32 32 32 32 32 33 34 34 34 34 34 34 32 33 35 35 33 32 33
3 4 4 4 6 9 7 6 7 7 10 15 22 25 26 28 28 28 27 26 25 25 25 24 24 26 26 26 25 24 24 24 24 22 22 22 21 22 23 24 23 22 24 27 29 29 27 26 25 26 27 27 28 28 28 29 29 31 31 31 31 32 32 33 32 32 32 31 31 31 31 31 31 32 33 33 33 33 31 29 30 34 35 31 28 29
4 4 3 3 5 8 8 10 11 6 6 15 23 26 28 29 28 27 27 27 28 29 29 28 28 28 27 25 25 24 24 25 23 21 21 21 22 22 23 23 23 23 24 26 27 27 25 25 26 26 27 27 27 27 28 28 28 29 29 30 30 30 31 31 31 31 30 30 30 30 30 30 30 30 31 32 32 32 31 27 24 28 32 31 26 24
13 13 9 6 8 11 13 15 15 10 9 19 27 27 26 26 27 27 28 29 29 30 29 29 28 26 25 25 24 23 23 23 22 22 23 23 23 23 22 22 22 23 25 26 26 25 25 26 27 27 28 29 29 29 28 28 28 29 29 29 29 29 29 29 30 30 29 28 28 28 28 29 30 29 29 30 30 31 32 30 25 22 25 27 26 24
Wind_Direction
154 158 173 209 219 210 210 205 212 221 197 203 212 222 226 234 264 265 269 276 223 276 274 263 271 276 271 278 332 354 6 32 67 92 85 84 86 82 82 79 75 75 72 72 78 87 92 95 94 91 88 86 85 84 86 87 80 72 62 54 62 67 73 99 123 138 172 178 179 192 203 214 226 236 248 252 253 256 257 259 261 264 267 268 269 269
150 191 220 222 223 220 217 210 219 243 239 229 215 252 263 238 260 267 269 285 203 177 260 305 318 280 272 297 3 18 35 35 55 84 81 83 85 81 83 80 80 83 84 88 90 94 100 102 104 103 99 94 87 85 86 85 84 84 84 81 79 79 81 83 83 80 81 94 119 174 208 230 239 241 248 251 253 257 258 260 263 265 265 265 267 267
188 217 235 233 228 227 239 176 191 227 227 232 209 232 263 245 280 285 280 312 27 174 260 324 289 274 287 46 37 41 63 57 67 85 83 85 84 81 82 82 86 89 88 91 91 94 98 100 102 99 94 90 87 86 86 85 85 85 84 84 83 84 84 84 84 83 81 80 79 78 80 77 76 239 253 260 262 263 263 266 268 269 269 267 266 267
210 233 237 235 218 201 252 172 144 180 215 207 181 186 250 249 314 280 283 332 3 191 265 247 239 275 292 90 64 57 77 75 76 84 82 82 82 81 85 86 87 88 86 87 88 91 94 96 96 94 92 91 89 87 85 83 82 82 82 82 83 83 83 85 85 83 82 81 80 79 77 75 74 73 69 53 4 306 293 284 278 276 273 270 269 268
232 244 237 217 160 182 234 222 154 166 229 236 208 202 233 240 222 229 275 334 342 355 5 2 315 295 270 155 105 76 79 73 71 78 76 77 86 91 93 92 90 89 88 88 88 90 91 92 91 90 90 89 87 83 81 80 78 78 78 78 77 78 78 79 79 80 81 81 81 80 79 78 76 76 75 74 71 59 42 26 347 315 294 285 279 274
254 255 224 128 130 168 204 237 193 165 201 274 231 210 218 229 227 233 303 358 2 333 344 23 345 292 313 325 169 120 67 58 62 67 70 76 89 95 95 94 95 94 93 91 90 90 90 89 88 86 84 82 80 78 77 78 78 77 77 76 75 74 74 74 74 75 75 76 77 77 78 79 78 79 79 76 72 65 58 52 41 25 345 314 298 289
256 257 205 177 167 152 186 249 223 165 153 278 246 207 211 218 215 217 190 104 193 257 295 32 252 265 316 317 192 142 87 72 59 55 66 79 88 94 96 98 100 99 98 96 94 92 90 88 85 82 79 77 76 76 76 76 76 75 74 73 72 71 71 71 72 73 71 69 69 68 69 71 71 71 71 69 64 57 52 44 36 30 23 14 359 340
221 312 117 174 159 152 194 251 222 158 132 247 254 156 166 184 188 189 166 169 226 255 320 1 150 258 292 280 210 132 105 74 60 53 60 78 90 98 104 106 105 103 101 100 96 92 89 85 82 79 76 75 75 75 74 72 71 69 68 67 67 67 68 69 70 70 67 64 63 62 61 62 63 63 64 63 59 56 52 47 42 38 35 33 30 26
183 140 188 170 148 180 209 216 181 155 151 244 213 110 129 153 154 141 130 158 303 17 306 301 111 270 266 269 345 113 123 87 108 124 82 96 108 110 114 114 110 107 104 100 96 92 87 84 81 78 77 75 74 72 68 66 65 64 62 61 62 64 66 68 68 66 66 65 63 62 60 60 63 64 65 65 64 62 58 55 53 48 44 37 32 29
240 196 195 155 151 207 209 193 172 167 194 217 132 94 70 73 79 78 103 111 36 21 250 233 185 221 268 280 309 146 183 200 170 170 158 136 132 127 124 119 114 111 107 102 97 93 88 85 82 79 77 74 71 68 65 64 64 61 60 56 55 62 65 67 67 64 67 68 65 65 64 65 68 68 66 64 61 58 52 48 45 41 37 30 25 21
287 297 195 161 180 189 150 90 151 164 153 133 109 66 37 33 40 39 58 83 46 275 245 223 197 189 268 286 225 179 213 186 161 162 180 167 157 147 134 127 121 116 111 106 100 96 91 88 85 80 76 72 69 67 64 62 60 58 57 51 51 60 64 65 65 62 66 68 66 66 65 65 65 61 56 49 43 39 33 28 27 25 21 18 16 11
320 296 261 225 190 144 107 75 74 94 103 114 94 67 50 339 11 25 356 42 169 254 266 257 206 174 228 265 234 250 298 204 170 168 176 175 169 159 143 135 129 122 117 111 105 100 96 92 88 82 76 72 69 66 61 59 57 54 55 50 48 57 61 60 58 58 61 62 62 60 56 51 46 38 31 26 23 21 17 16 17 14 10 9 8 2
301 245 266 280 201 162 117 79 36 21 57 99 104 96 90 320 352 348 307 299 231 252 279 290 161 181 236 240 243 277 303 284 211 175 168 168 166 161 150 142 136 129 123 117 111 107 103 99 92 84 78 73 68 62 58 56 53 51 53 50 45 52 57 54 50 52 54 54 52 48 40 35 30 23 19 17 15 13 11 9 7 5 3 2 360 357
300 297 311 132 241 200 158 139 184 267 114 147 149 135 140 150 189 270 269 270 273 272 285 268 182 270 269 266 270 271 296 299 210 169 164 162 159 156 151 147 142 136 131 125 121 117 112 106 96 87 81 75 66 61 56 52 51 48 49 47 44 52 57 52 48 49 50 48 46 41 35 31 27 22 19 16 14 11 9 7 4 1 1 360 360 360
224 306 247 184 241 196 181 176 165 145 140 178 160 135 151 158 174 226 222 219 266 285 294 279 218 211 223 282 291 277 338 48 144 155 159 159 157 155 153 152 148 144 141 136 133 128 119 110 99 88 80 74 65 62 58 54 57 53 51 53 53 61 66 60 55 51 49 47 44 39 36 32 28 24 20 17 15 11 6 4 360 356 354 353 353 352
175 261 259 266 321 146 179 203 128 111 128 206 124 111 169 181 169 216 209 176 191 292 290 217 222 218 186 283 320 6 62 87 130 149 157 161 161 160 160 158 154 153 151 148 142 134 124 115 104 88 79 74 64 62 61 59 65 62 62 68 68 69 70 62 54 47 44 43 38 34 30 26 24 19 14 12 9 5 1 357 352 348 344 341 339 337
146 265 282 322 356 83 136 195 123 122 183 164 123 183 219 174 132 134 264 91 91 262 267 192 228 285 295 329 345 34 73 95 132 154 163 166 166 168 168 164 162 162 160 156 150 141 133 125 112 93 81 77 65 62 61 61 71 74 76 82 79 74 69 57 50 45 43 40 32 26 22 16 11 6 2 2 360 357 354 350 345 341 337 333 330 327
158 265 287 76 166 337 31 109 69 57 123 122 172 216 205 134 94 99 242 334 34 246 269 192 200 244 244 255 341 41 148 175 189 183 176 175 176 179 177 171 170 169 165 164 160 155 149 141 133 118 102 107 94 82 84 89 94 99 103 105 98 88 75 58 50 44 38 32 22 14 10 2 357 354 352 350 348 345 342 339 335 333 329 327 325 322
129 261 295 351 166 300 360 84 59 13 58 122 177 190 122 151 172 96 172 229 239 247 276 279 232 224 208 202 194 195 195 194 200 199 192 190 190 191 185 179 177 174 172 173 171 171 166 160 168 175 183 189 155 133 131 125 120 118 114 102 88 69 54 45 37 32 23 16 10 2 358 354 350 350 347 346 344 341 339 336 333 331 328 326 323 320
117 185 284 319 289 304 8 72 171 283 359 69 97 34 58 159 174 155 158 182 202 239 268 279 282 262 228 197 182 196 195 182 186 195 198 198 195 192 187 183 183 180 180 181 182 186 182 176 195 204 196 190 167 153 145 135 125 112 94 69 54 39 32 28 20 19 15 10 8 3 360 356 352 350 348 346 344 342 340 338 336 333 331 328 326 324
92 168 247 297 318 293 182 207 189 190 186 125 163 228 273 158 142 226 240 136 152 200 236 268 273 262 247 194 183 196 189 180 187 185 185 197 196 192 189 187 188 186 187 191 192 196 197 194 204 202 187 177 166 154 139 123 106 86 66 49 41 30 23 19 13 10 9 5 3 359 354 351 347 345 342 340 338 337 336 334 332 330 327 326 325 323
145 164 193 262 328 188 227 247 196 186 174 159 185 203 197 171 136 248 256 214 144 203 197 241 267 267 252 202 193 192 181 184 186 174 178 196 196 194 194 194 197 198 197 200 202 205 208 204 197 190 182 177 170 161 147 123 95 73 57 42 33 24 14 7 1 358 354 350 346 342 338 334 332 330 328 328 328 327 327 327 326 325 323 323 322 321
137 119 146 228 214 208 245 274 181 186 156 135 180 189 159 150 143 206 241 233 197 235 172 188 262 269 247 220 233 210 189 183 180 174 180 193 195 195 199 201 207 209 207 209 210 210 209 203 195 191 187 185 179 169 163 143 116 87 59 35 17 5 355 350 346 342 339 337 335 333 331 329 327 326 325 325 325 324 324 323 322 321 320 320 319 319
112 107 169 271 295 306 305 324 18 103 104 116 238 151 142 176 156 192 229 192 165 236 215 235 254 257 316 345 308 194 180 172 177 181 185 192 197 201 205 211 216 215 215 218 214 210 208 205 201 195 186 182 175 160 148 124 93 55 24 7 355 348 343 340 337 333 331 330 330 329 328 327 325 324 323 323 323 322 321 320 319 318 317 316 316 315
181 151 127 244 304 319 322 337 350 346 44 183 241 228 189 183 124 95 235 134 206 228 211 235 251 251 328 7 37 126 159 166 180 188 191 192 195 206 217 227 231 226 222 219 212 208 208 205 198 189 180 174 165 147 125 87 43 12 356 345 336 330 326 323 320 320 320 319 320 319 318 317 316 316 316 316 315 315 314 314 313 312 311 311 311 311
176 188 141 179 242 252 246 229 230 272 266 201 248 252 213 175 162 179 201 193 232 224 199 232 253 282 325 347 11 82 163 174 185 194 204 207 207 221 233 242 243 234 224 215 210 208 205 199 190 184 180 175 168 155 134 56 351 342 330 317 308 303 303 305 305 306 307 306 307 307 306 307 308 308 308 308 308 308 308 307 306 306 305 305 305 306
121 204 192 198 231 241 228 221 206 153 161 213 241 237 217 176 157 142 135 194 224 240 246 244 235 329 297 277 284 262 195 194 209 213 218 220 226 242 254 261 254 236 222 214 209 206 201 195 190 187 187 189 188 193 204 242 277 288 290 287 287 288 288 289 290 290 292 293 294 294 296 297 298 299 300 301 302 302 303 303 303 302 302 301 301 301
102 234 222 206 237 245 194 205 204 159 185 205 210 227 223 167 140 151 186 208 167 165 256 248 162 182 253 233 221 240 234 226 237 234 229 232 249 265 269 268 255 229 216 211 205 205 204 199 196 196 199 203 204 211 226 246 261 269 274 274 274 275 276 276 277 278 279 281 283 284 287 289 291 293 295 296 298 299 300 301 300 300 299 298 298 299
130 233 222 178 235 246 143 198 188 158 211 231 221 235 232 201 181 185 211 217 193 217 255 256 151 208 249 230 195 215 219 219 234 241 243 251 265 272 268 259 241 219 208 205 202 206 208 204 204 209 213 215 219 225 233 247 261 267 268 267 267 267 269 271 272 273 275 277 280 284 289 293 295 296 297 297 298 298 298 298 298 297 297 296 297 297
135 225 191 148 230 231 153 300 85 139 249 277 256 247 243 235 215 200 218 226 217 234 262 278 235 243 254 237 203 217 224 230 245 254 257 264 270 270 260 244 225 210 203 204 206 210 212 211 215 222 226 230 232 229 234 248 262 268 267 267 268 269 271 272 271 273 276 280 287 292 296 298 298 298 298 298 298 298 298 297 296 296 295 295 296 296
144 188 90 104 247 277 270 350 70 112 229 264 262 255 228 126 246 233 233 233 222 251 261 268 273 266 261 239 219 234 233 231 244 253 258 263 261 251 240 225 211 203 200 205 208 211 217 219 224 229 232 234 231 228 239 259 268 269 267 267 269 270 271 270 272 276 281 287 293 297 299 300 299 299 299 299 299 299 298 298 297 297 297 296 296 296
152 185 56 87 191 256 260 125 111 66 35 276 268 259 182 174 242 240 228 207 203 231 247 256 258 259 263 229 204 238 233 217 229 242 248 252 244 230 223 213 204 200 199 204 208 213 219 223 225 228 229 228 228 234 253 267 270 267 266 266 267 268 269 272 276 282 288 293 297 299 300 300 300 300 300 300 300 300 299 298 298 298 298 297 297 297
149 154 113 142 202 234 90 119 102 56 6 273 265 239 189 214 241 246 240 220 208 205 212 229 240 250 271 310 244 254 241 217 230 238 238 237 226 216 215 209 202 200 201 206 213 216 220 223 223 225 226 229 238 252 264 268 267 265 265 266 267 269 272 276 281 288 294 299 301 301 301 301 301 301 301 301 301 300 299 299 298 298 298 298 298 298
156 153 163 183 191 205 140 95 84 83 255 260 259 159 187 214 229 237 242 235 216 196 202 232 253 268 274 251 246 253 251 248 255 252 239 229 217 209 209 205 201 204 209 215 219 219 221 222 222 226 232 241 251 260 264 265 264 264 265 266 268 270 274 280 288 295 299 301 302 302 302 302 302 302 302 301 300 299 299 299 300 300 300 300 300 300
162 160 175 167 148 185 154 108 181 228 239 255 47 185 210 206 207 221 245 249 226 211 219 240 253 251 243 241 244 256 268 270 271 258 230 214 211 208 204 203 206 214 221 224 224 222 222 223 228 235 242 250 257 261 263 264 265 265 266 267 269 272 278 286 293 297 299 300 302 302 302 302 303 303 302 300 300 300 301 301 301 302 302 302 302 302
163 162 169 151 153 150 125 178 222 253 300 299 270 216 111 117 156 178 272 264 234 209 212 228 237 240 243 247 254 266 268 261 247 222 203 199 207 211 210 214 221 229 235 236 233 231 230 232 238 246 251 256 261 264 266 268 268 268 268 269 272 277 285 292 296 298 299 300 301 301 301 302 303 302 301 301 302 303 303 303 303 304 304 304 304 304
161 164 181 200 204 192 182 218 240 318 310 285 265 199 164 177 164 160 242 259 232 194 196 211 234 243 246 253 259 243 212 189 195 208 204 208 221 226 226 228 232 238 242 239 237 237 237 240 247 254 259 264 267 270 272 272 271 271 271 273 278 285 291 295 297 298 299 300 300 301 302 303 302 302 302 303 304 305 305 305 306 306 307 306 306 306
163 189 199 220 227 177 176 240 255 261 265 266 246 193 193 193 178 163 212 268 253 198 198 203 219 232 234 236 218 183 160 143 288 244 229 231 236 236 233 230 230 237 240 239 240 240 240 244 251 257 264 270 272 273 274 274 273 274 275 279 285 291 295 297 299 300 301 301 302 303 304 304 304 304 305 306 306 307 307 307 308 308 309 309 308 308
90 24 186 220 238 192 196 233 232 237 254 251 218 223 211 185 169 118 81 283 266 202 198 198 197 210 217 202 180 159 146 173 253 261 260 257 246 235 229 227 230 239 244 244 246 246 246 250 255 261 268 272 273 273 273 274 275 277 280 285 290 295 297 299 300 301 302 303 304 306 306 306 306 307 307 308 308 308 309 309 310 310 310 310 310 309
122 94 161 215 227 221 227 236 233 248 261 236 215 223 151 152 138 100 35 271 247 186 188 187 188 201 209 195 175 158 167 201 240 275 284 280 255 232 228 241 257 262 261 257 255 253 253 255 257 264 269 269 271 273 273 275 277 279 283 289 293 296 298 300 301 302 303 305 306 307 307 307 307 308 308 309 309 309 310 310 311 311 311 311 310 309
141 190 199 217 227 226 227 237 260 264 246 214 188 167 144 120 111 141 233 234 182 174 179 180 189 201 203 194 185 188 219 241 261 277 281 275 246 221 229 265 280 274 266 260 257 256 255 255 257 262 266 267 270 274 275 277 279 282 286 290 293 296 299 300 301 302 304 305 306 306 307 307 308 309 309 310 310 310 311 311 311 312 312 311 310 309
146 103 231 225 224 227 232 234 264 275 232 180 165 162 154 133 169 222 211 162 165 179 185 187 198 211 211 207 206 218 246 264 270 270 270 263 241 227 252 280 279 269 260 255 253 253 251 252 255 260 265 270 275 278 279 281 282 284 288 291 294 297 299 300 301 302 304 305 306 306 307 307 308 310 311 311 312 312 312 313 313 313 312 311 310 308
166 156 216 230 189 166 232 217 234 276 200 155 146 147 168 185 224 228 200 176 186 199 204 204 209 215 216 220 226 239 258 269 267 266 268 261 246 244 271 284 277 267 261 257 254 251 247 248 253 259 266 274 277 280 281 281 282 285 289 292 294 297 298 299 301 302 303 305 306 307 308 309 310 311 312 313 313 313 313 314 314 314 313 311 310 309
186 168 186 233 194 154 192 213 207 264 170 161 157 176 208 213 231 239 226 218 220 219 213 211 215 218 221 231 244 253 261 265 262 265 269 263 253 257 277 284 277 266 258 252 249 246 244 247 252 258 266 273 276 278 279 280 282 285 289 292 294 296 297 299 301 302 304 306 307 308 309 310 312 312 313 314 315 314 314 315 315 314 313 311 311 311
224 196 173 205 210 168 202 228 203 125 170 179 186 210 218 222 236 242 239 240 237 227 218 215 219 227 235 249 257 259 261 262 262 264 266 264 263 269 278 281 276 265 255 247 244 243 244 248 253 259 267 272 275 277 278 280 283 286 289 292 294 296 298 300 302 303 305 307 308 309 310 311 312 313 314 315 315 314 315 316 316 315 313 312 313 313
240 208 148 160 265 249 244 242 212 173 200 199 205 223 233 234 239 240 239 239 235 230 230 229 235 252 267 270 267 264 265 264 263 262 261 263 268 272 274 275 272 264 253 246 243 243 244 248 253 260 268 273 276 278 279 282 285 288 290 293 295 297 299 301 303 305 307 308 309 310 311 312 312 314 315 315 315 315 315 317 317 315 313 314 315 315
259 202 183 192 247 256 253 225 193 210 224 214 212 224 233 235 238 239 240 241 239 239 240 242 251 268 277 276 272 271 272 268 261 259 262 267 272 273 273 272 270 263 252 247 245 244 245 249 255 261 269 274 276 278 280 282 286 289 291 294 296 298 301 303 305 307 307 308 309 310 311 312 312 314 315 315 315 315 316 318 318 314 313 316 318 316
241 191 198 214 217 227 243 229 207 221 236 233 224 227 231 234 237 239 242 245 245 244 243 246 258 272 277 277 275 274 273 268 262 265 273 277 278 276 274 271 269 262 253 248 245 244 247 251 257 265 271 275 277 278 280 283 287 290 293 296 298 301 303 305 306 307 308 309 310 310 311 312 313 314 314 314 315 315 316 320 320 314 313 319 322 320
198 195 192 189 222 240 254 253 235 245 264 250 235 232 235 239 240 241 244 247 246 243 243 249 263 275 279 279 278 274 270 267 269 275 279 279 278 276 274 271 267 261 254 248 245 246 250 256 263 271 276 277 279 281 283 287 290 292 295 298 301 303 305 306 306 307 308 309 310 310 311 311 312 313 313 313 315 316 318 322 322 315 315 322 326 323
186 223 198 156 226 248 247 236 228 226 262 255 246 243 244 245 244 244 247 248 247 248 251 258 269 276 276 275 275 271 267 270 276 279 279 278 278 277 275 270 264 257 252 248 247 250 256 264 272 278 281 283 285 287 290 292 295 296 299 301 303 304 305 306 307 307 308 309 309 310 310 311 312 313 313 314 316 317 318 322 322 315 316 322 326 322
216 228 220 196 226 248 254 248 234 218 239 260 261 260 256 253 249 247 249 253 255 256 260 265 269 271 269 269 270 268 268 273 276 276 276 277 276 275 272 267 259 254 251 250 252 258 265 272 280 284 286 288 291 293 296 298 300 301 302 304 305 305 306 306 307 307 308 309 309 309 310 311 312 313 314 316 318 319 319 321 323 319 318 322 323 322